TimeEDT,TemperatureF,Dew PointF,Humidity,Sea Level PressureIn,VisibilityMPH,Wind Direction,Wind SpeedMPH,Gust SpeedMPH,PrecipitationIn,Events,Conditions,WindDirDegrees,DateUTC
12:53 AM,48.9,43.0,80,30.00,10.0,Calm,Calm,-,N/A,,Overcast,0,2012-10-21 04:53:00
1:53 AM,48.0,43.0,83,30.02,10.0,Calm,Calm,-,N/A,,Overcast,0,2012-10-21 05:53:00
2:53 AM,46.9,43.0,86,30.03,10.0,Calm,Calm,-,N/A,,Overcast,0,2012-10-21 06:53:00
3:53 AM,46.9,43.0,86,30.04,10.0,Calm,Calm,-,N/A,,Overcast,0,2012-10-21 07:53:00
4:53 AM,46.9,43.0,86,30.06,10.0,Calm,Calm,-,N/A,,Overcast,0,2012-10-21 08:53:00
5:53 AM,45.0,42.1,90,30.07,10.0,Calm,Calm,-,N/A,,Mostly Cloudy,0,2012-10-21 09:53:00
6:53 AM,42.1,39.9,92,30.10,10.0,Calm,Calm,-,N/A,,Clear,0,2012-10-21 10:53:00
7:53 AM,39.9,37.9,93,30.14,10.0,North,3.5,-,N/A,,Partly Cloudy,360,2012-10-21 11:53:00
8:53 AM,44.1,41.0,89,30.16,10.0,Calm,Calm,-,N/A,,Partly Cloudy,0,2012-10-21 12:53:00
9:53 AM,50.0,44.1,80,30.17,10.0,Calm,Calm,-,N/A,,Partly Cloudy,0,2012-10-21 13:53:00
10:53 AM,55.0,42.1,62,30.17,10.0,Calm,Calm,-,N/A,,Partly Cloudy,0,2012-10-21 14:53:00
11:53 AM,57.0,39.9,53,30.16,10.0,Calm,Calm,-,N/A,,Partly Cloudy,0,2012-10-21 15:53:00
12:53 PM,59.0,41.0,51,30.14,10.0,Variable,3.5,-,N/A,,Clear,0,2012-10-21 16:53:00
1:53 PM,61.0,41.0,48,30.12,10.0,SE,5.8,-,N/A,,Clear,130,2012-10-21 17:53:00
2:53 PM,62.1,41.0,46,30.11,10.0,Calm,Calm,-,N/A,,Clear,0,2012-10-21 18:53:00
3:53 PM,63.0,42.1,46,30.11,10.0,Variable,3.5,-,N/A,,Clear,0,2012-10-21 19:53:00
4:53 PM,64.0,42.1,45,30.10,10.0,South,6.9,-,N/A,,Partly Cloudy,180,2012-10-21 20:53:00
5:53 PM,63.0,43.0,48,30.11,10.0,South,3.5,-,N/A,,Partly Cloudy,180,2012-10-21 21:53:00
6:53 PM,61.0,44.1,54,30.12,10.0,South,3.5,-,N/A,,Partly Cloudy,180,2012-10-21 22:53:00
7:53 PM,54.0,45.0,72,30.14,10.0,Calm,Calm,-,N/A,,Partly Cloudy,0,2012-10-21 23:53:00
8:53 PM,50.0,44.1,80,30.14,10.0,Calm,Calm,-,N/A,,Clear,0,2012-10-22 00:53:00
9:53 PM,46.0,43.0,89,30.16,10.0,Calm,Calm,-,N/A,,Clear,0,2012-10-22 01:53:00
10:53 PM,46.9,44.1,90,30.16,10.0,Calm,Calm,-,N/A,,Clear,0,2012-10-22 02:53:00
11:53 PM,45.0,43.0,93,30.16,10.0,Calm,Calm,-,N/A,,Scattered Clouds,0,2012-10-22 03:53:00